Volver al catálogo

FENGYUN 1C DEB

ActivoPO
NORAD 32230·DEBRIS·🇨🇳 China

Lanzado May 10, 1999 desde Taiyuan Satellite Launch Center

Loading…

Próximos Pases (próximas 24 horas)

TLE

ActualizadoSource: Space-Track

Época: Sep 14, 2026, 10:39 UTC

1 32230U 99025CWC 26257.44389640  .00006427  00000-0  12621-2 0  9998
2 32230  98.8889  71.3168 0045962 324.9882  64.3679 14.62384891646928

Sigue FENGYUN 1C DEB en tiempo real con AllMySat

Download on the App Store